NJE250M EBBR-EGLF

Flight info

Callsign NJE250M
Flight time 0h 45m
Altitude 28000
Route DENUT L610 LAM L179 ICTAM Q63 CPT
Aircraft CL60/M-SBDE1E2E3FGHIJ1J3J4J7P2RWXYZ/LB1D1

Departure

Time 2026-04-24 19:14
Airport Brussels Airport (EBBR)

Arrival

Time 2026-04-24 19:59
Airport Farnborough Airport (EGLF)
Time Latitude Longitude Altitude Speed Heading
2026-04-24 18:54 50.89735 4.47223 191 ft 0 kts 153°
2026-04-24 19:07 50.89730 4.47227 192 ft 3 kts 153°
2026-04-24 19:07 50.89716 4.47273 192 ft 7 kts 66°
2026-04-24 19:07 50.89737 4.47322 192 ft 7 kts 25°
2026-04-24 19:07 50.89805 4.47288 192 ft 10 kts 334°
2026-04-24 19:08 50.89854 4.47270 192 ft 6 kts 30°
2026-04-24 19:08 50.89881 4.47340 192 ft 7 kts 65°
2026-04-24 19:08 50.89910 4.47440 192 ft 11 kts 64°
2026-04-24 19:08 50.89946 4.47564 192 ft 9 kts 65°
2026-04-24 19:09 50.89990 4.47600 192 ft 6 kts 346°
2026-04-24 19:09 50.90045 4.47562 192 ft 10 kts 335°
2026-04-24 19:09 50.90121 4.47508 192 ft 13 kts 335°
2026-04-24 19:09 50.90204 4.47447 192 ft 10 kts 339°
2026-04-24 19:10 50.90264 4.47485 192 ft 9 kts 57°
2026-04-24 19:10 50.90300 4.47602 192 ft 13 kts 64°
2026-04-24 19:10 50.90344 4.47754 192 ft 17 kts 65°
2026-04-24 19:10 50.90398 4.47942 192 ft 20 kts 65°
2026-04-24 19:11 50.90460 4.48160 192 ft 22 kts 65°
2026-04-24 19:11 50.90517 4.48356 192 ft 10 kts 65°
2026-04-24 19:11 50.90557 4.48456 192 ft 7 kts 26°
2026-04-24 19:11 50.90605 4.48445 192 ft 5 kts 315°
2026-04-24 19:12 50.90630 4.48378 192 ft 8 kts 302°
2026-04-24 19:12 50.90677 4.48327 192 ft 6 kts 312°
2026-04-24 19:12 50.90678 4.48292 192 ft 1 kts 245°
2026-04-24 19:12 50.90678 4.48289 192 ft 0 kts 245°
2026-04-24 19:13 50.90675 4.48281 192 ft 4 kts 245°
2026-04-24 19:13 50.90514 4.47727 192 ft 115 kts 245°
2026-04-24 19:13 50.90072 4.46224 669 ft 167 kts 247°
2026-04-24 19:14 50.89744 4.44510 1773 ft 174 kts 276°
2026-04-24 19:14 50.90156 4.42621 2536 ft 208 kts 301°
2026-04-24 19:14 50.90920 4.40418 3304 ft 249 kts 301°
2026-04-24 19:14 50.91653 4.37830 4083 ft 270 kts 285°
2026-04-24 19:15 50.91954 4.34852 4835 ft 274 kts 279°
2026-04-24 19:15 50.92207 4.31879 5588 ft 274 kts 279°
2026-04-24 19:15 50.92569 4.28939 6344 ft 274 kts 292°
2026-04-24 19:15 50.93545 4.26382 7103 ft 277 kts 310°
2026-04-24 19:16 50.95541 4.21094 9938 ft 288 kts 295°
2026-04-24 19:16 50.96329 4.18236 11362 ft 293 kts 295°
2026-04-24 19:16 50.97178 4.15180 12293 ft 314 kts 294°
2026-04-24 19:17 50.98064 4.11989 13324 ft 328 kts 294°
2026-04-24 19:17 50.98986 4.08671 14559 ft 335 kts 294°
2026-04-24 19:17 50.99934 4.05255 15682 ft 341 kts 294°
2026-04-24 19:17 51.00879 4.01848 16848 ft 345 kts 293°
2026-04-24 19:18 51.01843 3.98372 17932 ft 350 kts 293°
2026-04-24 19:18 51.02813 3.94867 18947 ft 354 kts 292°
2026-04-24 19:18 51.03807 3.91273 19959 ft 357 kts 292°
2026-04-24 19:18 51.04802 3.87672 20915 ft 360 kts 292°
2026-04-24 19:19 51.05800 3.84057 21837 ft 363 kts 292°
2026-04-24 19:19 51.06810 3.80394 22720 ft 366 kts 292°
2026-04-24 19:19 51.07832 3.76684 23540 ft 370 kts 291°
2026-04-24 19:19 51.08875 3.72885 24048 ft 383 kts 292°
2026-04-24 19:20 51.09953 3.68956 24416 ft 397 kts 292°
2026-04-24 19:20 51.11086 3.64823 24684 ft 409 kts 292°
2026-04-24 19:20 51.12242 3.60604 24940 ft 412 kts 292°
2026-04-24 19:20 51.13389 3.56411 25228 ft 411 kts 292°
2026-04-24 19:21 51.14537 3.52209 25602 ft 409 kts 292°
2026-04-24 19:21 51.15664 3.48072 25979 ft 410 kts 292°
2026-04-24 19:21 51.16820 3.43824 26362 ft 413 kts 292°
2026-04-24 19:21 51.17974 3.39573 26762 ft 415 kts 292°
2026-04-24 19:22 51.18737 3.36760 27012 ft 417 kts 292°
2026-04-24 19:22 51.20285 3.31040 27518 ft 420 kts 291°
2026-04-24 19:22 51.21428 3.26809 27892 ft 422 kts 291°
2026-04-24 19:22 51.22596 3.22478 28191 ft 425 kts 291°
2026-04-24 19:23 51.24940 3.13762 28242 ft 426 kts 291°
2026-04-24 19:23 51.27266 3.05080 28245 ft 422 kts 291°
2026-04-24 19:24 51.29558 2.96491 28243 ft 422 kts 291°
2026-04-24 19:24 51.31852 2.87863 28246 ft 422 kts 291°
2026-04-24 19:25 51.34130 2.79264 28247 ft 421 kts 291°
2026-04-24 19:25 51.35866 2.70363 28239 ft 420 kts 281°
2026-04-24 19:26 51.36974 2.61254 28239 ft 419 kts 281°
2026-04-24 19:26 51.38089 2.52104 28238 ft 418 kts 281°
2026-04-24 19:27 51.39198 2.42949 28236 ft 419 kts 281°
2026-04-24 19:27 51.40301 2.33789 28242 ft 418 kts 280°
2026-04-24 19:28 51.41401 2.24629 28242 ft 418 kts 281°
2026-04-24 19:28 51.42515 2.15510 28244 ft 418 kts 281°
2026-04-24 19:29 51.44173 2.01835 28246 ft 417 kts 281°
2026-04-24 19:30 51.45253 1.92736 28241 ft 417 kts 280°
2026-04-24 19:30 51.46326 1.83577 28235 ft 417 kts 280°
2026-04-24 19:31 51.47377 1.74494 28244 ft 417 kts 280°
2026-04-24 19:31 51.48425 1.65383 28247 ft 417 kts 280°
2026-04-24 19:32 51.49466 1.56260 28246 ft 416 kts 280°
2026-04-24 19:32 51.50498 1.47154 28248 ft 416 kts 280°
2026-04-24 19:33 51.51525 1.38027 28249 ft 416 kts 281°
2026-04-24 19:33 51.52543 1.28910 28247 ft 417 kts 279°
2026-04-24 19:34 51.53559 1.19745 28249 ft 417 kts 280°
2026-04-24 19:34 51.54565 1.10608 28249 ft 416 kts 280°
2026-04-24 19:35 51.55560 1.01491 28252 ft 415 kts 280°
2026-04-24 19:35 51.56549 0.92371 28248 ft 416 kts 280°
2026-04-24 19:36 51.57533 0.83221 28252 ft 415 kts 280°
2026-04-24 19:36 51.58508 0.74090 28253 ft 416 kts 280°
2026-04-24 19:37 51.59478 0.64933 28253 ft 416 kts 280°
2026-04-24 19:37 51.60438 0.55791 27800 ft 419 kts 280°
2026-04-24 19:37 51.60917 0.51204 27428 ft 414 kts 280°
2026-04-24 19:38 51.61393 0.46635 27051 ft 410 kts 280°
2026-04-24 19:38 51.61858 0.42147 26683 ft 407 kts 280°
2026-04-24 19:38 51.62322 0.37658 26309 ft 405 kts 280°
2026-04-24 19:38 51.62779 0.33214 25939 ft 403 kts 279°
2026-04-24 19:39 51.63239 0.28724 25560 ft 401 kts 279°
2026-04-24 19:39 51.63689 0.24320 25189 ft 398 kts 279°
2026-04-24 19:39 51.64134 0.19943 24818 ft 396 kts 279°
2026-04-24 19:39 51.64484 0.15607 24452 ft 393 kts 272°
2026-04-24 19:40 51.64210 0.11226 24073 ft 393 kts 261°
2026-04-24 19:40 51.63745 0.06963 23696 ft 391 kts 262°
2026-04-24 19:40 51.63282 0.02650 23325 ft 389 kts 262°
2026-04-24 19:40 51.62820 -0.01634 22950 ft 387 kts 261°
2026-04-24 19:41 51.62365 -0.05848 22576 ft 386 kts 261°
2026-04-24 19:41 51.61903 -0.10110 22193 ft 386 kts 261°
2026-04-24 19:41 51.61505 -0.14406 21821 ft 385 kts 263°
2026-04-24 19:41 51.61161 -0.18626 21444 ft 385 kts 263°
2026-04-24 19:42 51.60809 -0.22905 21069 ft 384 kts 263°
2026-04-24 19:42 51.60462 -0.27110 20694 ft 384 kts 263°
2026-04-24 19:42 51.60109 -0.31364 20318 ft 383 kts 263°
2026-04-24 19:42 51.59755 -0.35618 19952 ft 382 kts 262°
2026-04-24 19:43 51.59401 -0.39841 19576 ft 381 kts 262°
2026-04-24 19:43 51.59051 -0.44007 19201 ft 380 kts 262°
2026-04-24 19:43 51.58697 -0.48204 18826 ft 380 kts 262°
2026-04-24 19:43 51.58337 -0.52445 18455 ft 379 kts 262°
2026-04-24 19:44 51.57983 -0.56605 18075 ft 379 kts 262°
2026-04-24 19:44 51.57627 -0.60765 17708 ft 377 kts 262°
2026-04-24 19:44 51.57265 -0.64982 17323 ft 376 kts 262°
2026-04-24 19:44 51.56907 -0.69134 16950 ft 375 kts 261°
2026-04-24 19:45 51.56550 -0.73258 16564 ft 374 kts 261°
2026-04-24 19:45 51.56192 -0.77369 16230 ft 372 kts 261°
2026-04-24 19:45 51.55831 -0.81505 15790 ft 371 kts 261°
2026-04-24 19:45 51.55472 -0.85600 15462 ft 369 kts 261°
2026-04-24 19:46 51.55116 -0.89652 15092 ft 367 kts 261°
2026-04-24 19:46 51.54759 -0.93687 14679 ft 366 kts 261°
2026-04-24 19:46 51.54404 -0.97687 14327 ft 365 kts 261°
2026-04-24 19:46 51.54044 -1.01717 13955 ft 363 kts 261°
2026-04-24 19:47 51.53686 -1.05723 13598 ft 363 kts 261°
2026-04-24 19:47 51.53151 -1.09635 13196 ft 360 kts 248°
2026-04-24 19:47 51.51792 -1.12974 12869 ft 356 kts 224°
2026-04-24 19:47 51.49742 -1.15129 12509 ft 354 kts 200°
2026-04-24 19:48 51.47355 -1.15755 12214 ft 349 kts 176°
2026-04-24 19:48 51.45048 -1.14923 11935 ft 333 kts 162°
2026-04-24 19:48 51.40870 -1.12631 11441 ft 307 kts 161°
2026-04-24 19:49 51.36944 -1.10461 10736 ft 293 kts 161°
2026-04-24 19:49 51.33138 -1.08367 9817 ft 289 kts 161°
2026-04-24 19:50 51.27774 -1.04598 8516 ft 279 kts 130°
2026-04-24 19:50 51.26833 -1.01947 8060 ft 276 kts 112°
2026-04-24 19:51 51.25454 -0.96295 7214 ft 271 kts 111°
2026-04-24 19:51 51.24778 -0.93504 6904 ft 263 kts 111°
2026-04-24 19:52 51.23502 -0.88271 6425 ft 246 kts 111°
2026-04-24 19:52 51.22886 -0.85776 6183 ft 239 kts 111°
2026-04-24 19:52 51.22281 -0.83340 5997 ft 229 kts 111°
2026-04-24 19:52 51.21608 -0.81062 5984 ft 230 kts 126°
2026-04-24 19:53 51.20354 -0.79586 5904 ft 227 kts 160°
2026-04-24 19:53 51.18798 -0.79526 5480 ft 234 kts 196°
2026-04-24 19:53 51.16595 -0.83300 4674 ft 240 kts 240°
2026-04-24 19:54 51.15819 -0.85637 4310 ft 240 kts 240°
2026-04-24 19:54 51.15049 -0.87983 4020 ft 236 kts 241°
2026-04-24 19:54 51.14333 -0.90274 3783 ft 231 kts 249°
2026-04-24 19:54 51.14233 -0.92745 3539 ft 226 kts 286°
2026-04-24 19:55 51.14711 -0.94222 3374 ft 221 kts 313°
2026-04-24 19:55 51.16440 -0.95658 3040 ft 209 kts 358°
2026-04-24 19:55 51.17851 -0.95329 2692 ft 206 kts 23°
2026-04-24 19:55 51.19117 -0.94341 2370 ft 205 kts 31°
2026-04-24 19:56 51.20345 -0.93304 2262 ft 194 kts 30°
2026-04-24 19:56 51.21482 -0.92377 2214 ft 169 kts 30°
2026-04-24 19:56 51.22494 -0.91551 1985 ft 155 kts 32°
2026-04-24 19:56 51.23267 -0.90613 1825 ft 130 kts 53°
2026-04-24 19:57 51.23721 -0.89438 1687 ft 123 kts 64°
2026-04-24 19:57 51.24114 -0.88231 1498 ft 123 kts 65°
2026-04-24 19:57 51.24480 -0.87010 1381 ft 120 kts 65°
2026-04-24 19:57 51.24851 -0.85825 1218 ft 120 kts 64°
2026-04-24 19:58 51.25228 -0.84673 1136 ft 118 kts 62°
2026-04-24 19:58 51.25621 -0.83517 991 ft 119 kts 64°
2026-04-24 19:58 51.26011 -0.82354 842 ft 119 kts 62°
2026-04-24 19:58 51.26412 -0.81162 722 ft 121 kts 62°
2026-04-24 19:59 51.26792 -0.79995 532 ft 117 kts 63°
2026-04-24 19:59 51.27174 -0.78856 327 ft 116 kts 62°
2026-04-24 19:59 51.27523 -0.77803 241 ft 95 kts 62°
2026-04-24 19:59 51.27721 -0.77208 241 ft 28 kts 62°
2026-04-24 20:00 51.27791 -0.77038 241 ft 15 kts 38°
2026-04-24 20:00 51.27889 -0.76933 241 ft 18 kts 34°
2026-04-24 20:00 51.27980 -0.76837 241 ft 12 kts 31°
2026-04-24 20:00 51.28039 -0.76787 241 ft 9 kts 358°
2026-04-24 20:01 51.28070 -0.76852 241 ft 10 kts 287°
2026-04-24 20:01 51.28096 -0.76984 241 ft 14 kts 288°
2026-04-24 20:01 51.28133 -0.77161 241 ft 18 kts 288°
2026-04-24 20:01 51.28173 -0.77375 241 ft 16 kts 287°
2026-04-24 20:02 51.28193 -0.77470 241 ft 11 kts 289°
2026-04-24 20:02 51.28237 -0.77545 241 ft 4 kts 358°
2026-04-24 20:02 51.28281 -0.77547 241 ft 6 kts 332°
2026-04-24 20:02 51.28297 -0.77589 241 ft 1 kts 287°
2026-04-24 20:03 51.28299 -0.77596 241 ft 0 kts 287°